Weather History for CWSA - October, 2012

Change the Weather History Date:

Thursday, October 11, 2012

  Actual Average Record
Temperature  
Mean Temperature 60 °F -  
Max Temperature 66 °F 56 °F 66 °F (2005)
Min Temperature 55 °F 48 °F 35 °F (2003)
Degree Days  
Heating Degree Days 4    
Growing Degree Days 10 (Base 50)    
Moisture  
Dew Point 57 °F    
Average Humidity 84    
Maximum Humidity 100    
Minimum Humidity 44    
Precipitation  
Precipitation 0.16 in - - ()
Sea Level Pressure  
Sea Level Pressure 29.78 in    
Wind  
Wind Speed 18 mph ()    
Max Wind Speed 36 mph    
Max Gust Speed 48 mph    
Visibility 4.3 miles    
Events Rain    
Averages and records for this station are not official NWS values.
T = Trace of Precipitation, MM = Missing Value Source: Averaged Metar Reports

Daily Weather History Graph

Daily Weather History Graph

Search for Another Location

Airport or City:

Trip Planner

Search our weather history database for the weather conditions in past years. The results will help you decide how hot, cold, wet, or windy it might be!

Date:

Astronomy

Oct. 11, 2012 Rise Set
Actual Time 7:10 AM ADT 6:22 PM ADT
Civil Twilight 6:41 AM ADT 6:51 PM ADT
Nautical Twilight 6:07 AM ADT 7:24 PM ADT
Astronomical Twilight 5:34 AM ADT 7:57 PM ADT
Moon 2:35 AM ADT (10/11) 4:02 PM ADT (10/11)
Length of Visible Light 12h 10m
Length of Day
11h 12m
Waning Crescent, 19% of the Moon is Illuminated
Oct 11
Waning Crescent
Oct 15
New
Oct 22
First Quarter
Oct 29
Full
Nov 6
Last Quarter

Hourly Weather History & Observations

Time (ADT) Temp. Dew Point Humidity Pressure Visibility Wind Dir Wind Speed Gust Speed Precip Events Conditions
12:00 AM 61 °F 59 °F 91% 29.88 in 6 mi ESE 18.4 mph - -   Overcast
12:00 AM 60.8 °F 59.0 °F 94% 29.88 in 6.0 mi ESE 17.3 mph - N/A   Overcast
12:29 AM 60.8 °F 59.0 °F 94% 29.86 in 6.0 mi ESE 19.6 mph - N/A   Overcast
12:30 AM 60.8 °F 59.0 °F 94% 29.86 in 6.0 mi ESE 19.6 mph - N/A   Overcast
12:32 AM 60.8 °F 59.0 °F 94% 29.86 in 6.0 mi ESE 19.6 mph - N/A   Overcast
12:33 AM 60.8 °F 59.0 °F 94% 29.86 in 6.0 mi ESE 19.6 mph - N/A   Overcast
12:35 AM 60.8 °F 59.0 °F 94% 29.86 in 6.0 mi ESE 20.7 mph - N/A   Overcast
12:47 AM 60.8 °F 59.0 °F 94% 29.85 in 6.0 mi ESE 17.3 mph 24.2 mph N/A   Overcast
12:50 AM 60.8 °F 59.0 °F 94% 29.85 in 6.0 mi ESE 19.6 mph - N/A   Overcast
12:53 AM 60.8 °F 59.0 °F 94% 29.85 in 6.0 mi ESE 17.3 mph - N/A   Overcast
1:00 AM 60.8 °F 59.0 °F 94% 29.85 in 6.0 mi ESE 18.4 mph - N/A   Overcast
1:16 AM 60.8 °F 59.0 °F 94% 29.84 in 6.0 mi ESE 17.3 mph - N/A   Overcast
1:20 AM 62.6 °F 59.0 °F 88% 29.84 in 6.0 mi ESE 17.3 mph - N/A   Overcast
1:28 AM 62.6 °F 59.0 °F 88% 29.83 in 6.0 mi ESE 17.3 mph - N/A   Overcast
1:42 AM 62.6 °F 59.0 °F 88% 29.83 in 5.0 mi ESE 19.6 mph - N/A   Overcast
2:00 AM 62.6 °F 60.8 °F 94% 29.82 in 5.0 mi East 16.1 mph - N/A   Overcast
2:14 AM 62.6 °F 60.8 °F 94% 29.81 in 3.0 mi East 16.1 mph - N/A   Overcast
2:17 AM 62.6 °F 60.8 °F 94% 29.81 in 2.5 mi East 13.8 mph 20.7 mph N/A   Overcast
2:36 AM 62.6 °F 60.8 °F 94% 29.79 in 1.4 mi ESE 11.5 mph 21.9 mph N/A   Overcast
3:00 AM 62.6 °F 60.8 °F 94% 29.79 in 1.0 mi ESE 16.1 mph - N/A   Overcast
3:22 AM 62.6 °F 60.8 °F 94% 29.77 in 1.2 mi ESE 15.0 mph - N/A   Overcast
3:36 AM 62.6 °F 60.8 °F 94% 29.76 in 1.4 mi SE 13.8 mph - N/A   Overcast
3:40 AM 62.6 °F 62.6 °F 100% 29.76 in 1.4 mi SE 13.8 mph - N/A   Overcast
3:43 AM 62.6 °F 60.8 °F 94% 29.76 in 1.5 mi SE 13.8 mph - N/A   Overcast
4:00 AM 62.6 °F 60.8 °F 94% 29.75 in 1.6 mi SE 12.7 mph - N/A   Overcast
4:01 AM 62.6 °F 62.6 °F 100% 29.75 in 1.6 mi SE 13.8 mph - N/A   Overcast
4:10 AM 62.6 °F 62.6 °F 100% 29.75 in 1.8 mi SE 11.5 mph - N/A   Overcast
4:15 AM 62.6 °F 62.6 °F 100% 29.74 in 1.8 mi SE 12.7 mph - N/A   Overcast
4:20 AM 62.6 °F 62.6 °F 100% 29.74 in 2.0 mi SE 12.7 mph - N/A   Overcast
4:25 AM 62.6 °F 62.6 °F 100% 29.74 in 1.4 mi SE 12.7 mph - N/A   Overcast
4:28 AM 62.6 °F 62.6 °F 100% 29.74 in 0.8 mi SE 11.5 mph - N/A   Overcast
4:29 AM 62.6 °F 62.6 °F 100% 29.74 in 0.6 mi SE 12.7 mph - N/A   Overcast
4:33 AM 62.6 °F 62.6 °F 100% 29.74 in 0.4 mi SE 13.8 mph - N/A   Unknown
4:40 AM 62.6 °F 62.6 °F 100% 29.73 in 0.1 mi SE 12.7 mph - N/A   Unknown
5:00 AM 62.6 °F 62.6 °F 100% 29.73 in 0.1 mi SSE 11.5 mph - N/A   Unknown
6:00 AM 64 °F 62 °F 93% 29.70 in 0 mi South 12.7 mph - -  
6:00 AM 64.4 °F 62.6 °F 94% 29.70 in 0.1 mi South 13.8 mph - N/A   Unknown
7:00 AM 64.4 °F 62.6 °F 94% 29.69 in 0.1 mi South 15.0 mph - N/A   Unknown
7:08 AM 64.4 °F 62.6 °F 94% 29.68 in 0.5 mi South 18.4 mph - N/A   Unknown
7:13 AM 66.2 °F 64.4 °F 94% 29.67 in 1.1 mi South 16.1 mph 21.9 mph N/A Rain Light Rain
7:23 AM 64.4 °F 62.6 °F 94% 29.68 in 1.4 mi South 25.3 mph 31.1 mph N/A Rain Light Rain
7:24 AM 64.4 °F 62.6 °F 94% 29.68 in 1.8 mi SSW 23.0 mph 31.1 mph N/A Rain Light Rain
7:34 AM 62.6 °F 60.8 °F 94% 29.67 in 1.8 mi South 16.1 mph 25.3 mph N/A Rain Rain
7:42 AM 62.6 °F 60.8 °F 94% 29.66 in 1.4 mi SW 13.8 mph 21.9 mph N/A Rain Rain
7:53 AM 62.6 °F 60.8 °F 94% 29.67 in 3.0 mi SSW 12.7 mph 19.6 mph N/A Rain Rain
7:58 AM 64.4 °F 62.6 °F 94% 29.67 in 4.0 mi SSW 16.1 mph - N/A   Unknown
8:00 AM 66.2 °F 62.6 °F 88% 29.67 in 4.0 mi SSW 16.1 mph - N/A   Unknown
8:15 AM 66.2 °F 64.4 °F 94% 29.66 in 5.0 mi SSW 18.4 mph - N/A   Mostly Cloudy
8:22 AM 66.2 °F 64.4 °F 94% 29.67 in 5.0 mi SSW 19.6 mph - N/A   Scattered Clouds
9:00 AM 66 °F 63 °F 87% 29.68 in 5 mi SW 24.2 mph - -  
9:00 AM 66.2 °F 62.6 °F 88% 29.68 in 5.0 mi SW 24.2 mph 29.9 mph N/A   Scattered Clouds
10:00 AM 64.4 °F 59.0 °F 83% 29.70 in 6.0 mi SW 26.5 mph - N/A   Clear
11:00 AM 64.4 °F 57.2 °F 77% 29.71 in 7.0 mi WSW 29.9 mph 38.0 mph N/A   Unknown
12:00 PM 64 °F 55 °F 64% 29.73 in 6 mi WSW 33.4 mph - -  
12:00 PM 64.4 °F 55.4 °F 73% 29.73 in 6.0 mi WSW 31.1 mph 46.0 mph N/A   Unknown
12:45 PM 62.6 °F 50.0 °F 63% 29.73 in 6.0 mi West 31.1 mph 41.4 mph N/A   Overcast
12:59 PM 62.6 °F 50.0 °F 63% 29.72 in 6.0 mi West 33.4 mph 41.4 mph N/A   Overcast
1:00 PM 62.6 °F 50.0 °F 63% 29.73 in 6.0 mi West 31.1 mph 41.4 mph N/A   Overcast
1:07 PM 62.6 °F 51.8 °F 68% 29.73 in 6.0 mi West 26.5 mph 42.6 mph N/A   Mostly Cloudy
2:00 PM 60.8 °F 44.6 °F 55% 29.75 in 6.0 mi West 34.5 mph 48.3 mph N/A   Unknown
3:00 PM 60 °F 44 °F 44% 29.79 in 6 mi West 33.4 mph - -  
3:00 PM 59.0 °F 44.6 °F 59% 29.79 in 6.0 mi West 35.7 mph 42.6 mph N/A   Unknown
4:00 PM 59.0 °F 44.6 °F 59% 29.82 in 7.0 mi West 27.6 mph 41.4 mph N/A   Scattered Clouds
5:00 PM 57.2 °F 41.0 °F 55% 29.85 in 8.0 mi West 31.1 mph 40.3 mph N/A   Scattered Clouds
6:00 PM 57 °F 42 °F 46% 29.89 in 7 mi West 27.6 mph - -  
6:00 PM 57.2 °F 42.8 °F 59% 29.89 in 8.0 mi West 27.6 mph 38.0 mph N/A   Scattered Clouds
7:00 PM 57.2 °F 39.2 °F 51% 29.93 in 8.0 mi West 29.9 mph 39.1 mph N/A   Scattered Clouds
8:00 PM 57.2 °F 41.0 °F 55% 29.96 in 8.0 mi West 20.7 mph 33.4 mph N/A   Scattered Clouds
9:00 PM 57 °F 42 °F 46% 29.99 in 9 mi WNW 20.7 mph - -  
9:00 PM 57.2 °F 42.8 °F 59% 29.99 in 9.0 mi West 21.9 mph 32.2 mph N/A   Scattered Clouds
10:00 PM 55.4 °F 39.2 °F 54% 30.02 in 9.0 mi West 18.4 mph 27.6 mph N/A   Scattered Clouds
11:00 PM 55.4 °F 37.4 °F 51% 30.06 in 9.0 mi WNW 23.0 mph 31.1 mph N/A   Partly Cloudy